Hourly Weather Kistowo

Today, 25 July, Sunday

Time Temperature Precipitation Wind Pressure Humidity
00:00 +16°C° 0 mm 3 mps 742 mmHg 81%
01:00 +16°C° 0 mm 2 mps 742 mmHg 79%
02:00 +16°C° 0 mm 2 mps 742 mmHg 77%
03:00 +17°C° 0 mm 2 mps 742 mmHg 75%
04:00 +17°C° 0 mm 2 mps 741 mmHg 72%
05:00 +19°C° 0 mm 3 mps 741 mmHg 69%
06:00 +20°C° 0 mm 3 mps 741 mmHg 65%
07:00 +21°C° 0 mm 3 mps 742 mmHg 60%
08:00 +22°C° 0 mm 4 mps 742 mmHg 55%
09:00 +25°C° 0 mm 4 mps 741 mmHg 49%
10:00 +27°C° 0 mm 5 mps 741 mmHg 43%
11:00 +28°C° 0 mm 5 mps 741 mmHg 41%
12:00 +29°C° 0 mm 5 mps 741 mmHg 39%
13:00 +30°C° 0 mm 5 mps 741 mmHg 37%
14:00 +28°C° 0 mm 5 mps 741 mmHg 43%
15:00 +27°C° 0 mm 4 mps 741 mmHg 48%
16:00 +26°C° 0 mm 3 mps 741 mmHg 54%
17:00 +25°C° 0 mm 3 mps 741 mmHg 58%
18:00 +25°C° 0 mm 3 mps 741 mmHg 62%
19:00 +24°C° 0 mm 3 mps 741 mmHg 67%
20:00 +22°C° 0 mm 3 mps 741 mmHg 69%
21:00 +21°C° 0 mm 3 mps 741 mmHg 72%
22:00 +20°C° 0 mm 3 mps 741 mmHg 74%
23:00 +20°C° 0 mm 3 mps 741 mmHg 76%

Tomorrow, 26 July, Monday

Time Temperature Precipitation Wind Pressure Humidity
00:00 +19°C° 0 mm 3 mps 741 mmHg 77%
01:00 +19°C° 0 mm 3 mps 741 mmHg 79%
02:00 +18°C° 0 mm 3 mps 741 mmHg 78%
03:00 +18°C° 0 mm 3 mps 741 mmHg 78%
04:00 +18°C° 0 mm 3 mps 741 mmHg 77%
05:00 +20°C° 0 mm 3 mps 741 mmHg 70%
06:00 +21°C° 0 mm 4 mps 741 mmHg 63%
07:00 +23°C° 0 mm 4 mps 741 mmHg 56%
08:00 +23°C° 0 mm 5 mps 741 mmHg 55%
09:00 +23°C° 0 mm 5 mps 741 mmHg 55%
10:00 +25°C° 0 mm 5 mps 741 mmHg 55%
11:00 +25°C° 0 mm 5 mps 741 mmHg 56%
12:00 +25°C° 0 mm 4 mps 741 mmHg 58%
13:00 +25°C° 0 mm 4 mps 740 mmHg 59%
14:00 +25°C° 0.4 mm 3 mps 740 mmHg 63%
15:00 +25°C° 0.4 mm 3 mps 740 mmHg 66%
16:00 +25°C° 0.4 mm 3 mps 740 mmHg 70%
17:00 +24°C° 0.3 mm 3 mps 740 mmHg 73%
18:00 +22°C° 0.3 mm 3 mps 739 mmHg 77%
19:00 +22°C° 0.3 mm 3 mps 739 mmHg 81%
20:00 +21°C° 0 mm 3 mps 739 mmHg 85%
21:00 +20°C° 0 mm 2 mps 739 mmHg 89%
22:00 +19°C° 0 mm 2 mps 739 mmHg 93%
23:00 +18°C° 0.2 mm 2 mps 739 mmHg 94%

Day after tomorrow, 27 July, Tuesday

Time Temperature Precipitation Wind Pressure Humidity
00:00 +18°C° 0.2 mm 2 mps 739 mmHg 96%
01:00 +18°C° 0.2 mm 2 mps 739 mmHg 97%
02:00 +19°C° 0 mm 1 mps 739 mmHg 97%
03:00 +19°C° 0 mm 1 mps 738 mmHg 97%
04:00 +18°C° 0 mm 1 mps 738 mmHg 97%
05:00 +20°C° 0 mm 1 mps 738 mmHg 91%
06:00 +21°C° 0 mm 1 mps 739 mmHg 86%
07:00 +21°C° 0 mm 2 mps 739 mmHg 81%
08:00 +24°C° 0.1 mm 2 mps 739 mmHg 73%
09:00 +26°C° 0.1 mm 2 mps 739 mmHg 65%
10:00 +27°C° 0.1 mm 3 mps 739 mmHg 56%
11:00 +28°C° 0.1 mm 3 mps 739 mmHg 54%
12:00 +28°C° 0.1 mm 4 mps 739 mmHg 51%
13:00 +29°C° 0.1 mm 5 mps 739 mmHg 49%
14:00 +28°C° 0.3 mm 4 mps 739 mmHg 52%
15:00 +27°C° 0.3 mm 4 mps 739 mmHg 55%
16:00 +26°C° 0.3 mm 4 mps 739 mmHg 58%
17:00 +25°C° 0.5 mm 3 mps 739 mmHg 66%
18:00 +23°C° 0.5 mm 2 mps 739 mmHg 73%
19:00 +21°C° 0.5 mm 2 mps 740 mmHg 81%
20:00 +21°C° 0 mm 1 mps 740 mmHg 82%
21:00 +20°C° 0 mm 1 mps 740 mmHg 84%
22:00 +19°C° 0 mm 1 mps 740 mmHg 86%
23:00 +19°C° 0 mm 1 mps 740 mmHg 87%

28 July, Wednesday

Time Temperature Precipitation Wind Pressure Humidity
00:00 +19°C° 0 mm 1 mps 740 mmHg 88%
01:00 +17°C° 0 mm 2 mps 740 mmHg 89%
02:00 +17°C° 0 mm 2 mps 739 mmHg 90%
03:00 +17°C° 0 mm 2 mps 739 mmHg 90%
04:00 +17°C° 0 mm 2 mps 739 mmHg 91%
05:00 +19°C° 0 mm 2 mps 739 mmHg 85%
06:00 +20°C° 0 mm 2 mps 739 mmHg 78%
07:00 +23°C° 0 mm 2 mps 739 mmHg 72%
08:00 +24°C° 0 mm 3 mps 739 mmHg 63%
09:00 +26°C° 0 mm 3 mps 739 mmHg 53%
10:00 +28°C° 0 mm 4 mps 739 mmHg 43%
11:00 +27°C° 0 mm 4 mps 739 mmHg 43%
12:00 +27°C° 0 mm 4 mps 739 mmHg 43%
13:00 +27°C° 0 mm 4 mps 739 mmHg 43%
14:00 +26°C° 0 mm 3 mps 739 mmHg 47%
15:00 +26°C° 0 mm 3 mps 739 mmHg 51%
16:00 +25°C° 0 mm 2 mps 739 mmHg 54%
17:00 +24°C° 0.1 mm 2 mps 739 mmHg 59%
18:00 +23°C° 0.1 mm 2 mps 740 mmHg 64%
19:00 +21°C° 0.1 mm 2 mps 740 mmHg 69%
20:00 +20°C° 0 mm 2 mps 740 mmHg 73%
21:00 +19°C° 0 mm 2 mps 740 mmHg 78%
22:00 +17°C° 0 mm 2 mps 740 mmHg 83%
23:00 +17°C° 0 mm 2 mps 740 mmHg 85%

29 July, Thursday

Time Temperature Precipitation Wind Pressure Humidity
00:00 +16°C° 0 mm 2 mps 740 mmHg 88%
01:00 +15°C° 0 mm 2 mps 740 mmHg 90%
02:00 +15°C° 0 mm 2 mps 740 mmHg 91%
03:00 +15°C° 0 mm 2 mps 740 mmHg 92%
04:00 +15°C° 0 mm 2 mps 740 mmHg 92%
05:00 +16°C° 0 mm 2 mps 741 mmHg 84%
06:00 +18°C° 0 mm 3 mps 741 mmHg 77%
07:00 +20°C° 0 mm 3 mps 741 mmHg 69%
08:00 +21°C° 0 mm 3 mps 741 mmHg 60%
09:00 +24°C° 0 mm 3 mps 741 mmHg 52%
10:00 +25°C° 0 mm 3 mps 741 mmHg 44%
11:00 +26°C° 0 mm 3 mps 741 mmHg 41%
12:00 +27°C° 0 mm 3 mps 741 mmHg 37%
13:00 +28°C° 0 mm 3 mps 740 mmHg 34%
14:00 +27°C° 0 mm 3 mps 740 mmHg 40%
15:00 +26°C° 0 mm 2 mps 740 mmHg 46%
16:00 +25°C° 0 mm 2 mps 740 mmHg 51%
17:00 +24°C° 0 mm 2 mps 740 mmHg 55%
18:00 +23°C° 0 mm 1 mps 740 mmHg 59%
19:00 +22°C° 0 mm 1 mps 740 mmHg 63%
20:00 +22°C° 0 mm 1 mps 739 mmHg 65%
21:00 +20°C° 0 mm 2 mps 739 mmHg 67%
22:00 +20°C° 0 mm 2 mps 739 mmHg 69%
23:00 +20°C° 0 mm 2 mps 739 mmHg 69%

30 July, Friday

Time Temperature Precipitation Wind Pressure Humidity
00:00 +20°C° 0 mm 2 mps 739 mmHg 68%
01:00 +20°C° 0 mm 2 mps 738 mmHg 68%
02:00 +19°C° 0 mm 2 mps 738 mmHg 69%
03:00 +19°C° 0 mm 2 mps 738 mmHg 69%
04:00 +19°C° 0 mm 2 mps 738 mmHg 70%
05:00 +20°C° 0 mm 2 mps 738 mmHg 66%
06:00 +21°C° 0 mm 2 mps 737 mmHg 62%
07:00 +22°C° 0 mm 3 mps 737 mmHg 58%
08:00 +25°C° 0 mm 3 mps 737 mmHg 54%
09:00 +26°C° 0 mm 4 mps 737 mmHg 49%
10:00 +28°C° 0 mm 5 mps 736 mmHg 45%
11:00 +27°C° 0.2 mm 5 mps 736 mmHg 51%
12:00 +26°C° 0.2 mm 5 mps 736 mmHg 56%
13:00 +26°C° 0.2 mm 5 mps 735 mmHg 62%
14:00 +25°C° 0.5 mm 5 mps 735 mmHg 65%
15:00 +23°C° 0.5 mm 5 mps 736 mmHg 68%
16:00 +23°C° 0.5 mm 5 mps 736 mmHg 71%
17:00 +22°C° 0 mm 4 mps 736 mmHg 71%
18:00 +21°C° 0 mm 4 mps 736 mmHg 71%
19:00 +20°C° 0 mm 4 mps 736 mmHg 71%
20:00 +19°C° 0 mm 3 mps 736 mmHg 77%
21:00 +17°C° 0 mm 2 mps 736 mmHg 82%
22:00 +16°C° 0 mm 1 mps 736 mmHg 88%
23:00 +16°C° 0 mm 2 mps 736 mmHg 90%
Show more